Cloud_Cover
5 17 56 100 95 6 5 4 4 0 0 0 0 0 15 11 0 0 100 100 100 100 100 100 100 100 88 100 90 100 82 24 100 100 61 10 90 96 100 100 100 100 98 89
12 44 77 99 41 11 9 4 0 0 0 0 0 0 0 0 0 0 100 100 74 100 49 98 35 63 100 97 100 100 100 93 67 12 5 0 27 2 56 100 100 100 100 100
21 52 98 100 34 86 9 4 0 0 0 0 0 0 0 0 0 5 100 86 31 12 97 72 34 5 4 4 4 1 1 3 4 5 3 0 0 0 4 99 100 100 100 100
43 100 100 62 5 48 5 0 0 0 0 0 0 0 0 0 0 3 100 100 96 89 17 81 6 33 100 24 0 4 1 5 43 5 0 0 0 0 0 3 100 100 100 100
100 100 100 6 5 5 0 0 0 0 0 0 0 0 0 5 5 21 8 100 100 100 100 100 100 100 100 100 85 66 29 5 1 0 0 0 0 0 5 4 86 100 100 100
100 93 60 19 4 5 4 0 0 0 0 0 0 0 0 2 0 0 4 14 10 25 79 100 100 78 27 1 0 5 5 5 3 0 5 5 5 9 4 0 1 15 60 100
75 38 42 5 5 4 2 0 0 0 0 0 0 0 0 0 0 0 1 4 3 5 5 5 5 2 3 4 5 5 5 5 4 5 5 5 5 5 5 3 0 0 0 0
44 6 5 7 5 5 5 5 0 0 0 0 0 0 0 0 0 5 5 19 16 5 5 5 5 5 5 5 5 5 5 5 5 5 5 5 5 5 30 5 1 0 0 0
9 35 16 65 5 5 5 5 3 2 1 0 0 0 0 0 0 0 4 5 5 5 15 79 5 5 12 99 19 10 28 5 5 5 5 52 82 88 99 36 36 14 67 46
9 33 89 96 5 5 5 1 3 5 5 0 0 0 0 0 0 0 5 5 5 79 97 62 40 99 100 93 71 4 5 5 5 5 8 22 75 34 95 100 100 100 100 100
6 30 100 58 5 5 5 5 4 5 2 0 0 0 0 0 2 5 5 35 62 98 99 97 100 97 67 5 2 5 5 21 61 5 5 4 17 88 81 100 100 100 100 100
66 46 100 89 5 5 5 5 6 5 0 0 0 0 0 1 5 5 27 95 85 100 96 90 86 18 5 0 0 4 47 73 5 29 33 100 100 79 99 100 100 100 100 100
100 100 100 67 35 25 19 15 5 5 0 0 0 0 0 5 5 5 19 82 76 33 19 5 5 0 0 0 0 5 6 73 78 49 100 100 100 100 100 100 93 87 100 97
100 100 100 100 66 67 23 66 5 5 0 0 0 2 5 5 5 8 70 6 5 5 5 5 0 0 0 22 32 65 49 39 69 36 96 93 100 100 100 100 89 52 100 100
86 73 72 5 10 18 6 11 5 0 0 0 2 2 2 4 5 3 0 4 5 5 5 0 0 3 88 94 93 56 58 32 30 76 72 95 100 100 100 100 99 28 40 14
34 10 18 7 38 5 45 5 5 0 0 0 0 2 0 0 0 0 2 5 5 5 5 5 5 82 5 5 6 93 67 76 100 100 51 100 100 100 100 100 54 37 18 13
70 16 32 35 7 5 5 5 5 2 0 1 0 0 0 0 0 0 5 5 5 5 5 3 42 100 100 52 84 100 92 100 100 100 98 100 100 100 100 38 50 38 39 52
41 69 65 85 5 12 5 5 5 0 0 0 0 0 0 0 0 0 4 5 5 5 5 74 100 100 100 72 71 100 98 100 98 30 10 95 100 94 100 100 56 44 54 68
80 100 94 14 5 5 5 5 5 0 0 0 0 0 0 0 0 4 0 2 57 79 97 100 100 100 83 9 100 100 100 100 9 5 59 100 100 100 100 100 34 47 69 91
73 100 42 8 5 10 5 4 0 2 0 0 0 0 0 0 4 0 1 22 52 92 90 92 94 58 12 86 100 100 99 26 5 49 100 98 100 100 100 41 65 92 96 100
99 88 53 21 5 6 5 2 5 3 0 0 0 0 0 0 0 39 52 39 68 96 100 100 99 100 81 100 100 95 39 5 18 100 16 21 82 100 62 78 100 87 100 100
75 74 47 5 5 30 5 5 5 1 0 0 0 0 0 0 0 18 50 100 100 100 100 63 98 86 66 100 31 18 5 5 93 100 16 5 16 16 66 100 85 100 100 100
68 80 47 5 5 5 5 5 5 1 0 0 0 0 0 5 36 96 100 100 100 62 85 53 76 73 100 79 50 5 5 60 100 99 34 17 41 32 43 100 100 100 100 100
32 56 99 68 33 5 5 5 5 0 0 0 0 0 4 26 98 100 100 100 70 37 64 99 87 98 91 61 8 5 5 100 100 97 70 15 44 89 38 100 100 100 100 100
44 72 84 90 86 62 4 5 5 2 1 0 0 0 17 34 56 100 88 80 77 15 64 99 100 98 78 32 8 5 5 100 43 100 98 26 53 78 80 20 81 100 100 100
73 85 100 82 98 5 5 5 5 5 0 0 1 4 34 65 68 89 97 94 32 49 89 100 83 72 6 5 14 30 12 86 97 100 100 100 80 100 26 92 100 99 99 74